Flag for Peru Weather past 2 weeks in Chiclayo, Lambayeque, Peru

Now
70 °F

Clear.


Feels Like: 70 °F
Forecast: 65 / 75 °F
Wind: 12 mph from South

Location: Chiclayo Airport

Current Time: Jul 29, 2015 at 7:25:47 PM

Latest Report: Jul 29, 2015 at 7:00 PM


Visibility: 10 mi

Pressure: 29.89 "Hg

Humidity: 78%

Dew point: 63 °F

Location of ChiclayoLocation

Historic Weather in Chiclayo — Graph

°F

Chiclayo temperature yesterday

Maximum temperature yesterday: 77 °F (at 3:00 PM)
Minimum temperature yesterday: 64 °F (at 1:00 AM)
Average temperature yesterday: 69 °F

Past Weeks' High & Low Weather Summary

 TemperatureHumidityPressure
High81 °F (Jul 22, 2:00 PM)94% (Jul 15, 6:00 AM)30.01 "Hg (Jul 15, 6:00 AM)
Low64 °F (Jul 15, 6:00 AM)57% (Jul 20, 2:00 PM)29.80 "Hg (Jul 25, 3:00 PM)
Average69 °F78%29.92 "Hg
* Reported Jul 14 6:00 PM — Jul 29 6:00 PM, Chiclayo, Weather by CustomWeather, © 2015

Note: Actual official high and low records may vary slightly from our data, if they occured in-between our weather recording intervals... More about our weather records

Advertising

Chiclayo weather history for previous 24 hours

 ConditionsComfort  
Time TempWeatherWind HumidityBarometerVisibility
6:00 PM
Wed, Jul 29
70 °FSunny.15 mph78%29.86 "Hg10 mi
5:00 PM72 °FSunny.16 mph73%29.83 "Hg10 mi
4:00 PM73 °FSunny.16 mph69%29.83 "Hg10 mi
3:00 PM75 °FSunny.15 mph69%29.86 "Hg10 mi
2:00 PM73 °FPassing clouds.13 mph69%29.89 "HgN/A
1:00 PM75 °FScattered clouds.14 mph65%29.89 "HgN/A
12:00 PM73 °FScattered clouds.12 mph69%29.92 "HgN/A
11:00 AM72 °FScattered clouds.14 mph73%29.92 "HgN/A
10:00 AM72 °FSunny.12 mph73%29.95 "Hg10 mi
9:00 AM68 °FSunny.13 mph83%29.95 "Hg10 mi
8:00 AM66 °FPassing clouds.9 mph88%29.92 "Hg5 mi
7:00 AM64 °FPassing clouds.8 mph94%29.89 "Hg5 mi
6:00 AM64 °FPassing clouds.8 mph94%29.89 "HgN/A
5:00 AM64 °FClear.6 mph88%29.89 "Hg10 mi
4:00 AM64 °FClear.8 mph88%29.89 "Hg10 mi
3:00 AM64 °FClear.7 mph94%29.89 "Hg10 mi
2:00 AM64 °FPassing clouds.7 mph94%29.89 "HgN/A
1:00 AM66 °FClear.8 mph88%29.92 "Hg10 mi
12:00 AM66 °FClear.10 mph88%29.92 "Hg10 mi
11:00 PM
Tue, Jul 28
66 °FClear.12 mph88%29.89 "Hg10 mi
10:00 PM68 °FClear.10 mph83%29.89 "Hg10 mi
9:00 PM68 °FClear.12 mph83%29.92 "Hg10 mi
8:00 PM68 °FClear.12 mph83%29.89 "Hg10 mi
7:00 PM70 °FClear.13 mph78%29.86 "Hg10 mi
Weather by CustomWeather, © 2015

See weather overviewHow to use our weather pages